{"data":{"norad_id":47796,"epoch":"2026-09-20T00:55:17.181984Z","epoch_age_seconds":51023,"freshness":"FRESH","line1":"1 47796U 21018K   26263.03839331  .00046123  00000+0  10482-2 0  9996","line2":"2 47796  53.1527  49.6809 0000943 118.0063 242.1039 15.42579013306613","mean_motion":15.42579013,"eccentricity":9.43e-5,"inclination_deg":53.1527,"raan_deg":49.6809,"arg_perigee_deg":118.0063,"mean_anomaly_deg":242.1039,"bstar":0.0010482,"rev_number":30661,"period_min":93.350161506443,"perigee_km":437.85815633618,"apogee_km":439.14377425643,"semimajor_km":6816.6379652963,"source":"CELESTRAK","updated_at":"2026-09-20T09:00:38.605734Z"}}